Regional Weather Roundup
Issued by NWS Jackson, KY

Home | Current Version | Previous Version | Graphics & Text | Print | Product List | Glossary On
Versions: 1 2 3 4 5 6 7 8 9 10 11 12 13 14 15 16 17 18 19 20 21 22 23 24 25 26 27 28 29 30 31 32 33 34 35 36 37 38 39 40 41 42 43 44 45 46 47 48 49 50
000
ASUS43 KJKL 260810
RWRJKL

EAST KENTUCKY HOURLY WEATHER ROUNDUP
NATIONAL WEATHER SERVICE JACKSON KY
300 AM EST THU FEB 26 2015

NOTE: "FAIR" INDICATES FEW OR NO CLOUDS BELOW 12,000 FEET WITH
NO SIGNIFICANT WEATHER AND/OR OBSTRUCTIONS TO VISIBILITY.

* THESE REPORTS ARE NOT UNDER NWS QUALITY CONTROL AND MAY NOT
  REPORT WEATHER SUCH AS PRECIPITATION AND FOG.

KYZ079-080-083-085-087-088-110-112-115-119-120-260900
...EASTERN KENTUCKY...

CITY           SKY/WX    TMP DP  RH WIND       PRES   REMARKS
JACKSON        LGT SNOW  29  22  75 VRB3      29.78S
LONDON         CLOUDY    30  24  78 E3        29.79S
SOMERSET*      CLOUDY    30  23  74 N6        29.81F WCI  24
MONTICELLO*    LGT SNOW  30  28  92 CALM      29.83F FOG
MIDDLESBORO*   LGT SNOW  30  30 100 CALM      29.79S
HAZARD APT*    CLOUDY    30  27  86 CALM      29.78F
BLACK MTN*       N/A     21  21 100 NW3         N/A
PIKEVILLE APT* CLOUDY    28  23  80 CALM      29.76
BIG SANDY*     CLOUDY    31  20  63 CALM      29.78F
MOREHEAD APT*  CLOUDY    30  18  59 N5        29.83F WCI  25
$$

KYZ035-036-041-042-044-050-067-078-099-260900
...CENTRAL KENTUCKY...

CITY           SKY/WX    TMP DP  RH WIND       PRES   REMARKS
MT STERLING*   CLOUDY    28  19  69 NE7       29.82F WCI  21
DANVILLE*      CLOUDY    30  23  74 N3        29.82S
RICHMOND*      CLOUDY    28  25  86 SE6       29.80F WCI  22
LEXINGTON      CLOUDY    27  18  69 NE10      29.82F WCI  17
FRANKFORT      CLOUDY    29  16  58 NE9       29.83S WCI  20
$$

KYZ091>093-OHZ055-061-077-WVZ005-015-034-035-042-260900
...SOUTHERN OHIO/WEST VIRGINIA...

CITY           SKY/WX    TMP DP  RH WIND       PRES   REMARKS
COVINGTON      CLOUDY    24  14  65 N14       29.87R WCI  12
COLUMBUS       CLOUDY    19   6  57 N9        29.90S WCI   8
DAYTON         CLOUDY    19   9  65 MISG      29.91S
WILMINGTON     CLOUDY    18   9  68 NE13      29.86F WCI   5
HUNTINGTON     CLOUDY    30  17  58 N6        29.80F WCI  24
CHARLESTON     FLURRIES  32  19  58 NE8       29.80F WCI  25
PINEVILLE*     LGT SNOW  32  31  99 MISG      29.77F
BECKLEY        LGT SNOW  27  23  85 CALM      29.71F FOG
BLUEFIELD      LGT SNOW  28  24  85 E3        29.68F FOG
$$

VAZ002-007-008-TNZ017-027-036-066-071-260900
...SOUTHWEST VIRGINIA/EAST TENNESSEE...

CITY           SKY/WX    TMP DP  RH WIND       PRES   REMARKS
WISE*          LGT SNOW  28  28 100 N6        29.70F WCI  22
JONESVILLE*    LGT SNOW  28  28 100 CALM      29.76F
ABINGDON*      LGT SNOW  31  30  94 E6        29.70S WCI  26
BRISTOL        LGT SNOW  31  30  96 CALM      29.72F VSB 3/4
KNOXVILLE      LGT SNOW  30  28  92 NW3       29.78R FOG
OAK RIDGE      LGT SNOW  31  29  92 CALM      29.79S FOG
CROSSVILLE     CLOUDY    28  25  88 N5        29.75F WCI  23
NASHVILLE      CLOUDY    30  28  93 NW6       29.85R FOG     WCI  24
$$

...KEY TO REMARKS...
VSB - VISIBILITY IN MILES
WCI - WIND CHILL INDEX
HX  - HEAT INDEX

$$



USA.gov is the U.S. government's official web portal to all federal, state and local government web resources and services.